Regional Weather Roundup
Issued by NWS

Home | Current Version | Previous Version | Text Only | Print | Product List | Glossary On
Versions: 1 2 3 4 5 6 7 8 9 10 11 12 13 14 15 16 17 18 19 20 21 22 23 24 25 26 27 28 29 30 31 32 33 34 35 36 37 38 39 40 41 42 43 44 45 46 47 48 49 50
000
ASUS43 KLOT 201400
RWRIL

ILLINOIS REGIONAL WEATHER ROUNDUP
NATIONAL WEATHER SERVICE CHICAGO/ROMEOVILLE IL
900 AM CDT SAT SEP 20 2014

NOTE: "FAIR" INDICATES FEW OR NO CLOUDS BELOW 12,000 FEET WITH NO
SIGNIFICANT WEATHER AND/OR OBSTRUCTIONS TO VISIBILITY.

* THESE STATIONS ARE NOT UNDER NWS QUALITY CONTROL. THEY ALSO MAY NOT
  REPORT WEATHER SUCH AS PRECIPITATION OR FOG.

ILZ001-002-007-009-015-016-024-201500-
NORTHWEST ILLINOIS

CITY           SKY/WX    TMP DP  RH WIND       PRES   REMARKS
MOLINE         CLOUDY    66  62  87 S16G24    29.85F
STERLING*      PTSUNNY   64  61  88 SW3       29.85F
$$

ILZ003-004-008-010-011-017-018-201500-
NORTH CENTRAL ILLINOIS

CITY           SKY/WX    TMP DP  RH WIND       PRES   REMARKS
ROCKFORD       CLOUDY    67  60  78 S16       29.85F
$$

ILZ005-006-012>014-019>023-201500-
NORTHEAST ILLINOIS

CITY           SKY/WX    TMP DP  RH WIND       PRES   REMARKS
CHICAGO-OHARE  CLOUDY    67  56  67 SW14G21   29.88F
CHICAGO-MIDWAY CLOUDY    66  58  75 SW13      29.90F
AURORA         CLOUDY    64  57  78 SW12      29.90F
WAUKEGAN       CLOUDY    64  57  78 S17G25    29.82F
DUPAGE AIRPORT CLOUDY    64  57  78 S14       29.89F
WHEELING       CLOUDY    66  57  72 SW13      29.88F
NORTHERLY ISL    N/A     66  56  70 S12         N/A
$$

LMZ740>746-201500-
SOUTHERN LAKE MICHIGAN

STATION/POSITION SKY/WX   TEMP    WIND        PRES    VSBY  WAVE
                          AIR SEA DIR/SP/G                  HT/PER
                          (F)     (DEG/KT/KT) (MB)    (MI)  (FT/S)
SOUTHERN BUOY              64 64  200/ 21/ 27 1009.9F         4/ 6
WAUKEGAN HARBOR            64     230/ 21/ 27   N/A
HARRISON CRIB              64     200/ 23/ 27   N/A
BURNHAM HARBOR             66     210/  8/ 11   N/A
CALUMET HARBOR             65     200/ 11/ 15 1011.7F
MICHIGAN CITY              64     180/ 18/ 24   N/A
MICHIGAN CITY 6N           66 65  200/ 16/ 21   N/A           4/ 4
ST. JOSEPH                 66 65  190/ 19/ 23   N/A           5/ 4
$$

ILZ025>027-034>036-040-047-049-050-058-095>099-201500-
WEST-CENTRAL ILLINOIS

CITY           SKY/WX    TMP DP  RH WIND       PRES   REMARKS
QUINCY         CLOUDY    67  63  87 SW8       30.01S
MACOMB*        PTSUNNY   66  63  87 SW13      29.97F
$$

ILZ028>032-037-038-041>044-048-051>054-059>061-201500-
CENTRAL ILLINOIS

CITY           SKY/WX    TMP DP  RH WIND       PRES   REMARKS
DECATUR        PTSUNNY   68  60  75 SW13      30.03R
PEORIA         CLOUDY    65  60  84 SW10      29.96F
SPRINGFIELD    PTSUNNY   68  62  81 SW7       30.01R
TAYLORVILLE    NOT AVBL
$$

ILZ033-039-045-046-055>057-062-063-201500-
EAST-CENTRAL ILLINOIS

CITY           SKY/WX    TMP DP  RH WIND       PRES   REMARKS
CHAMPAIGN      PTSUNNY   67  59  75 SW10      30.03R
MATTOON        MOSUNNY   66  58  75 S9        30.04S
$$

ILZ079-100>102-201500-
SOUTHWEST ILLINOIS

CITY           SKY/WX    TMP DP  RH WIND       PRES   REMARKS
ALTON          SUNNY     68  63  83 S6        30.04R
BELLEVILLE     SUNNY     69  66  92 VRB1      30.05R
CAHOKIA*       SUNNY     69  63  81 SW6       30.05R
$$

ILZ064>066-069>071-074>076-080>082-084>086-088>090-092>094-201500-
SOUTH-CENTRAL ILLINOIS

CITY           SKY/WX    TMP DP  RH WIND       PRES   REMARKS
CARBONDALE     SUNNY     71  65  81 S7        30.07S
MT. VERNON     MOSUNNY   66  61  82 SW6       30.07S
$$

ILZ067-068-072-073-078-083-087-091-201500-
SOUTHEAST ILLINOIS

CITY           SKY/WX    TMP DP  RH WIND       PRES   REMARKS
LAWRENCEVILLE  SUNNY     66  62  87 S7        30.07S FOG
$$

ABBREVIATIONS USED IN REMARKS
   TC - TEMPERATURE IN CELSIUS
  WCI - WIND CHILL INDEX
   HX - HEAT INDEX
  VSB - VISIBILITY
$$



USA.gov is the U.S. government's official web portal to all federal, state and local government web resources and services.